Regional Weather Roundup
Issued by NWS

Home | Current Version | Previous Version | Graphics & Text | Print | Product List | Glossary On
Versions: 1 2 3 4 5 6 7 8 9 10 11 12 13 14 15 16 17 18 19 20 21 22 23 24 25 26 27 28 29 30 31 32 33 34 35 36 37 38 39 40 41 42 43 44 45 46 47 48 49 50
830
ASUS43 KMKX 232011
RWRWI

WISCONSIN REGIONAL WEATHER ROUNDUP
NATIONAL WEATHER SERVICE MILWAUKEE/SULLIVAN WI
200 PM CST THU NOV 23 2017

NOTE: "FAIR" INDICATES FEW OR NO CLOUDS BELOW 12,000 FEET WITH NO
SIGNIFICANT WEATHER AND/OR OBSTRUCTIONS TO VISIBILITY.

WIZ001-002-006>008-014>016-023>028-232100-
NORTHWEST WISCONSIN

CITY           SKY/WX    TMP DP  RH WIND       PRES   REMARKS
SUPERIOR ARPT  SUNNY     38  25  57 SW8       29.81F WCI  33
ASHLAND        SUNNY     40  21  46 SW10      29.82F WCI  33
HAYWARD        SUNNY     39  20  46 SW8       29.82F WCI  33
SIREN          SUNNY     40  21  46 SW6       29.83F
CUMBERLAND     SUNNY     37  21  52 SW7       29.83F WCI  32
RICE LAKE      SUNNY     41  22  46 SW5       29.85F
CHETEK         SUNNY     41  22  48 NW3       29.84F
LADYSMITH      SUNNY     40  22  47 SW6       29.85F
EAU CLAIRE     SUNNY     41  19  41 SW7       29.86F
MENOMONIE      SUNNY     44  20  38 SW6       29.86F
NEW RICHMOND   SUNNY     42  20  40 SW6       29.85F
OSCEOLA        SUNNY     43  22  43 SW7       29.87F
$$

WIZ003>005-009-010-017-018-232100-
NORTH CENTRAL WISCONSIN

CITY           SKY/WX    TMP DP  RH WIND       PRES   REMARKS
MANITOWISH WTR SUNNY     37  23  56 W9        29.79F WCI  30
ARBOR VITAE    SUNNY     39  25  56 SW6       29.79F WCI  35
WOODRUFF       SUNNY     39  25  56 SW6       29.79F WCI  35
RHINELANDER    SUNNY     40  23  50 W7        29.82F
EAGLE RIVER    SUNNY     38  22  52 W9        29.80S WCI  31
LAND O LAKES   SUNNY     39  21  48 W8        29.81S WCI  33
PHILLIPS       SUNNY     39  24  54 SW6       29.81S WCI  34
TOMAHAWK       SUNNY     39  22  50 W6        29.82F
MEDFORD        SUNNY     38  21  49 W7        29.82F WCI  33
MERRILL        SUNNY     40  22  48 W6        29.84F
$$

WIZ029-030-035-036-043>047-232100-
CENTRAL WISCONSIN

CITY           SKY/WX    TMP DP  RH WIND       PRES   REMARKS
WAUSAU         SUNNY     40  21  46 W8        29.83F WCI  34
MOSINEE        MOSUNNY   39  19  45 W7        29.86F WCI  34
MARSHFIELD     SUNNY     40  19  43 W8        29.84F WCI  34
STEVENS POINT  SUNNY     39  19  45 W6        29.86F WCI  35
WAUPACA        SUNNY     44  19  36 W6        29.87F
WAUTOMA        SUNNY     43  20  39 W5        29.87F
WISC RAPIDS    SUNNY     42  21  43 VRB3      29.87F
CAMP DOUGLAS   SUNNY     45  20  37 W6        29.87F
$$

WIZ011>013-019>022-031-037>040-048>050-232100-
NORTHEAST WISCONSIN

CITY           SKY/WX    TMP DP  RH WIND       PRES   REMARKS
ANTIGO         SUNNY     38  22  52 W8        29.83F WCI  32
SHAWANO        SUNNY     44  19  37 W6        29.86F
OCONTO         SUNNY     41  20  43 W8        29.86F
STURGEON BAY   SUNNY     39  20  46 SW10      29.87S WCI  32
GREEN BAY      SUNNY     42  22  44 W9        29.87F
MANITOWOC      SUNNY     41  21  44 W8        29.89S
APPLETON       SUNNY     41  16  36 W8        29.86F
CLINTONVILLE   SUNNY     43  18  36 W6        29.86F
OSHKOSH        SUNNY     42  22  44 W6        29.88S
$$

WIZ032>034-041-042-053>061-232100-
SOUTHWEST WISCONSIN

CITY           SKY/WX    TMP DP  RH WIND       PRES   REMARKS
LA CROSSE      SUNNY     43  22  43 CALM      29.90F
SPARTA         SUNNY     43  22  43 CALM      29.90S
VIROQUA        SUNNY     42  24  49 W5        29.88F
BOSCOBEL       SUNNY     47  22  37 W3        29.90F
PRAIRIE DU CHI SUNNY     45  21  38 CALM      29.90F
PLATTEVILLE    SUNNY     44  26  48 W5        29.90F
$$

WIZ056-057-062-063-064-067-068-232100-
SOUTH CENTRAL WISCONSIN

CITY           SKY/WX    TMP DP  RH WIND       PRES   REMARKS
REEDSBURG      SUNNY     43  22  43 W5        29.87F
BARABOO/DELLS  SUNNY     43  20  39 CALM      29.87F
LONE ROCK      SUNNY     44  23  43 SW6       29.90F
MINERAL POINT  SUNNY     45  25  45 W7        29.88F
MADISON        MOSUNNY   43  22  43 VRB5      29.89F
MIDDLETON      SUNNY     46  21  37 W3        29.89F
WATERTOWN      SUNNY     42  22  44 SW7       29.89S
MONROE         SUNNY     43  23  45 SW9       29.89F
JANESVILLE     SUNNY     46  23  39 SW9       29.90F
$$

WIZ051-052-058>065-066-070>072-232100-
SOUTHEAST WISCONSIN

CITY           SKY/WX    TMP DP  RH WIND       PRES   REMARKS
MILWAUKEE      MOSUNNY   45  23  42 SW10      29.89F
WAUKESHA       SUNNY     41  21  45 SW8       29.90F
MILWAUKEE/TIMM SUNNY     43  18  36 W9        29.89F
RACINE         SUNNY     44  23  43 W10       29.91F
BURLINGTON     SUNNY     46  29  50 SW9       29.90S
KENOSHA        SUNNY     45  24  43 SW12      29.89F
FOND DU LAC    SUNNY     42  19  39 W5        29.88F
SHEBOYGAN      SUNNY     42  22  44 W9        29.88S
WEST BEND      SUNNY     41  21  45 SW8       29.88S
JUNEAU         SUNNY     41  22  46 SW10      29.90S
$$

LSZ147-162-232100-
LAKE SUPERIOR

STATION/POSITION TIME  TEMP    WIND        PRES    WAVE
                       AIR SEA DIR/SP/G            HT/PER
                 (UTC) (F)     (DEG/KT/KT) (MB)    (FT/S)
DEVILS ISLAND    2000   34     240/ 17/ 21 1009.8F
SAXON HARBOR     1940   41     260/  2/  8 1009.8F
$$

LMZ867-665-643>646-232100-
LAKE MICHIGAN

STATION/POSITION TIME  TEMP    WIND        PRES    WAVE
                       AIR SEA DIR/SP/G            HT/PER
                 (UTC) (F)     (DEG/KT/KT) (MB)    (FT/S)
N MID LAKE BUOY  1950   37 47  240/ 16/ 17 1012.2S   3/ 4
NORTHPORT PIER   1940   39     240/  3/  9 1011.2S
KEWAUNEE LAKESHO 1948   41     260/  7/ 10 1010.8S
SHEBOYGAN LAKESH 2000   41     220/  9/ 10 1012.2F
PORT WASHINGTON  1930   43     240/  6/ 10 1012.9F
MILWAUKEE LAKESH 1930   42     260/  9/ 10   N/A
S MID LAKE BUOY  1850   40 47  260/ 14/ 16 1014.1F   4/ 6
KENOSHA   LAKESH 2000   44     260/  9/ 12 1012.5
$$

TC  - TEMPERATURE IN CELSIUS
VSB - VISIBILITY IN STATUTE MILES
WCI - WIND CHILL INDEX
HX  - HEAT INDEX





USA.gov is the U.S. government's official web portal to all federal, state and local government web resources and services.